Location: Unspecified
(47.1121°N, 116.3927°W)
Time: 20:11:58
(UTC-07:00)

Cosmos 2058 - Visible Passes

Search period start: 27 May 2018 00:00
Search period end: 06 June 2018 00:00
Orbit: 563 x 584 km, 82.5° (Epoch: 27 May)

Date Brightness Start Highest point End Pass type
(mag) Time Alt. Az. Time Alt. Az. Time Alt. Az.
27 May 5.3 02:14:47 10° SE 02:17:37 18° E 02:20:28 10° NE visible
27 May 3.5 03:50:34 12° SSW 03:54:11 44° WNW 03:58:15 10° N visible
28 May 4.9 02:17:42 11° SE 02:20:41 23° E 02:24:00 10° NE visible
28 May 3.8 03:53:55 12° SW 03:57:25 34° WNW 04:01:18 10° N visible
29 May 4.5 02:21:02 15° SE 02:23:46 29° E 02:27:25 10° NNE visible
29 May 4.2 03:57:15 11° SW 04:00:40 27° WNW 04:04:17 10° NNW visible
30 May 4.1 02:24:21 19° SSE 02:26:52 37° E 02:30:46 10° NNE visible
30 May 4.5 04:00:39 10° WSW 04:03:55 22° WNW 04:07:13 10° NNW visible
31 May 3.6 02:27:39 23° SSE 02:29:59 48° E 02:34:03 10° NNE visible
31 May 4.8 04:04:23 10° WSW 04:07:12 17° WNW 04:10:02 10° NNW visible
01 Jun 3.2 02:30:56 27° S 02:33:07 64° E 02:37:18 10° NNE visible
01 Jun 5.1 04:08:21 10° W 04:10:30 14° WNW 04:12:41 10° NW visible
02 Jun 2.9 02:34:12 29° S 02:36:16 84° E 02:40:30 10° N visible
02 Jun 5.2 04:12:49 10° WNW 04:13:50 11° WNW 04:14:52 10° NW visible
03 Jun 5.5 01:02:01 10° E 01:03:09 11° E 01:04:18 10° ENE visible
03 Jun 2.9 02:37:27 30° SSW 02:39:26 74° W 02:43:39 10° N visible
04 Jun 5.3 01:04:28 12° ESE 01:06:11 14° E 01:08:26 10° NE visible
04 Jun 3.2 02:40:41 29° SW 02:42:37 56° WNW 02:46:46 10° N visible
05 Jun 5.0 01:07:42 15° ESE 01:09:14 18° E 01:12:07 10° NE visible
05 Jun 3.6 02:43:54 26° SW 02:45:50 43° WNW 02:49:51 10° N visible
